Location: Unspecified
(48.2082°N, 0.0000°E)
Time: 10:29:24
(UTC+00:00)

A-11 Canister half - Pass Details

Date: 21 June 2019
Orbit: 1514 x 1686 km, 47.2° (Epoch: 16 October)

Event Time Altitude Azimuth Distance (km) Brightness Sun altitude
Rises 16:01:22 0° 287° (WNW) 4,811 12.4 37.1°
Reaches altitude 10° 16:04:33 10° 284° (WNW) 3,800 12.2 36.6°
Maximum altitude 16:13:54 60° 208° (SSW) 1,741 10.2 35.0°
Drops below altitude 10° 16:22:57 10° 131° (SE) 3,682 10.7 33.5°
Sets 16:26:00 0° 128° (SE) 4,653 11.1 33.0°
